Location: Bagnara
(41.0500°N, 14.7833°E)
Time: 16:31:42
(UTC+00:00)

FALCON 9 DEB - Pass Details

Date: 31 October 2021
Orbit: 344 x 354 km, 53.0° (Epoch: 29 November)

Event Time Altitude Azimuth Distance (km) Brightness Sun altitude
Rises 16:41:13 0° 266° (W) 2,161 8.9 -8.8°
Reaches altitude 10° 16:43:33 10° 285° (WNW) 1,326 6.7 -9.2°
Maximum altitude 16:45:49 20° 335° (NNW) 913 4.9 -9.6°
Drops below altitude 10° 16:48:06 10° 25° (NNE) 1,341 5.3 -10.0°
Enters shadow 16:48:41 - 32° (NNE) 1,531 5.5 -10.1°
